Home   Weather   Corpus Christi   Past weeks

Flag for USA Past Weather in Corpus Christi, Texas, USA — Yesterday and Last 2 Weeks

Now
77 °F

Partly cloudy.


Feels Like: 78 °F
Forecast: 77 / 91 °F
Wind: 7 mph from North

Location: Corpus Christi International Airport

Current Time: Aug 31, 2016 at 3:17:23 AM

Latest Report: Aug 31, 2016 at 2:03 AM


Visibility: 10 mi

Pressure: 29.93 "Hg

Humidity: 94%

Dew Point: 75 °F

Location of Corpus ChristiLocation

Past Weather in Corpus Christi — Graph

°F

Corpus Christi Temperature Yesterday

Maximum temperature yesterday: 82 °F (at 4:51 PM)
Minimum temperature yesterday: 76 °F (at 7:51 AM)
Average temperature yesterday: 79 °F

High & Low Weather Summary for the Past Weeks

 TemperatureHumidityPressure
High96 °F (Aug 23, 2:51 PM)100% (Aug 30, 7:51 AM)30.13 "Hg (Aug 30, 7:51 AM)
Low75 °F (Aug 25, 3:51 AM)43% (Aug 24, 1:51 PM)29.77 "Hg (Aug 20, 6:51 PM)
Average84 °F79%29.96 "Hg
* Reported Aug 16 2:51 AM — Aug 31 2:03 AM, Corpus Christi, Weather by CustomWeather, © 2016

Note: Actual official high and low records may vary slightly from our data, if they occured in-between our weather recording intervals... More about our weather records

Advertising

Corpus Christi Weather History for the Previous 24 Hours

Scroll right to see more
 ConditionsComfort  
Time TempWeatherWind HumidityBarometerVisibility
2:03 AM
Wed, Aug 31
77 °FPartly cloudy.7 mph94%29.93 "Hg10 mi
1:51 AM78 °FPartly cloudy.6 mph90%29.93 "Hg10 mi
12:51 AM78 °FPassing clouds.6 mph90%29.93 "Hg10 mi
11:51 PM
Tue, Aug 30
78 °FPartly cloudy.7 mph90%29.92 "Hg10 mi
10:51 PM78 °FPassing clouds.6 mph93%29.91 "Hg10 mi
9:51 PM80 °FPartly cloudy.5 mph85%29.91 "Hg10 mi
8:51 PM81 °FBroken clouds.9 mph82%29.90 "Hg10 mi
7:51 PM80 °FBroken clouds.10 mph85%29.88 "Hg10 mi
6:51 PM81 °FBroken clouds.9 mph79%29.88 "Hg10 mi
5:51 PM82 °FPartly sunny.12 mph79%29.88 "Hg10 mi
4:51 PM82 °FPartly sunny.12 mph79%29.88 "Hg10 mi
3:51 PM81 °FBroken clouds.15 mph85%29.89 "Hg10 mi
2:51 PM80 °FBroken clouds.12 mph85%29.90 "Hg10 mi
1:51 PM80 °FLight rain. Broken clouds.14 mph79%29.92 "Hg10 mi
12:51 PM80 °FCloudy.12 mph90%29.93 "Hg10 mi
11:51 AM79 °FCloudy.17 mph90%29.93 "Hg10 mi
10:51 AM77 °FLight rain. Cloudy.10 mph94%29.93 "Hg10 mi
9:51 AM77 °FLight rain. Mostly cloudy.14 mph94%29.91 "Hg10 mi
9:03 AM77 °FMostly cloudy.15 mph96%29.90 "Hg10 mi
8:51 AM76 °FRain. Fog.10 mph97%29.90 "Hg2 mi
7:51 AM76 °FRain. Fog.10 mph100%29.89 "Hg5 mi
6:51 AM77 °FRain. Fog.13 mph96%29.88 "Hg5 mi
5:51 AM77 °FLight rain. Mostly cloudy.12 mph96%29.87 "Hg10 mi
4:51 AM77 °FLight rain. Overcast.10 mph96%29.86 "Hg7 mi
4:01 AM77 °FHeavy rain. Fog.16 mph96%29.88 "Hg4 mi
3:51 AM77 °FHeavy rain. Fog.17 mph96%29.87 "Hg3 mi
Weather by CustomWeather, © 2016

See weather overviewHow to use our weather pages